Ireland West Airport Knock, Ireland

2:04 PM IST on July 24, 2017 (GMT +0100)
Connaught

Weather History for EIKN - August, 2013

Change the Weather History Date:

Saturday, August 10, 2013

  Actual Average Record
Temperature  
Mean Temperature 56 °F -  
Max Temperature 60 °F - - ()
Min Temperature 51 °F - - ()
Degree Days  
Heating Degree Days 10    
Growing Degree Days 6 (Base 50)    
Moisture  
Dew Point 51 °F    
Average Humidity 80    
Maximum Humidity 100    
Minimum Humidity 59    
Precipitation  
Precipitation 0.04 in - - ()
Sea Level Pressure  
Sea Level Pressure 30.13 in    
Wind  
Wind Speed 8 mph ()    
Max Wind Speed 18 mph    
Max Gust Speed -    
Visibility 6.0 miles    
Events Rain    
T = Trace of Precipitation, MM = Missing Value Source: Averaged Metar Reports

Daily Weather History Graph

Daily Weather History Graph

Search for Another Location

Airport or City:

Trip Planner

Search our weather history database for the weather conditions in past years. The results will help you decide how hot, cold, wet, or windy it might be!

Date:

Astronomy

Aug. 10, 2013 Rise Set
Actual Time 6:04 AM IST 9:15 PM IST
Civil Twilight 5:23 AM IST 9:56 PM IST
Nautical Twilight 4:27 AM IST 10:51 PM IST
Astronomical Twilight 3:09 AM IST 12:07 AM IST
Moon 10:20 AM IST (8/10) 10:02 PM IST (8/10)
Length of Visible Light 16h 33m
Length of Day
15h 10m
Waxing Crescent, 12% of the Moon is Illuminated
Aug 10
Waxing Crescent
Aug 14
First Quarter
Aug 21
Full
Aug 28
Last Quarter
Sep 5
New

Hourly Weather History & Observations

Time (IST) Temp. Dew Point Humidity Pressure Visibility Wind Dir Wind Speed Gust Speed Precip Events Conditions
1:00 AM 54 °F 49 °F 79% 30.22 in - SSW 4.5 mph - -  
7:00 AM 52 °F 50 °F 91% 30.17 in 25 mi SSW 4.5 mph - -   Mostly Cloudy
7:00 AM 51.8 °F 50.0 °F 94% 30.15 in 6.2 mi SSW 4.6 mph - N/A   Mostly Cloudy
7:30 AM 53.6 °F 50.0 °F 88% 30.12 in 6.2 mi SW 6.9 mph - N/A   Mostly Cloudy
8:00 AM 53.6 °F 50.0 °F 88% 30.15 in - SW 5.8 mph - N/A   Clear
8:30 AM 55.4 °F 50.0 °F 82% 30.15 in - WSW 10.4 mph - N/A   Clear
9:00 AM 55.4 °F 50.0 °F 82% 30.15 in 6.2 mi WSW 10.4 mph - N/A   Mostly Cloudy
9:30 AM 57.2 °F 50.0 °F 77% 30.15 in 6.2 mi WSW 8.1 mph - N/A   Mostly Cloudy
10:00 AM 57.2 °F 50.0 °F 77% 30.15 in 6.2 mi SW 6.9 mph - N/A   Mostly Cloudy
10:30 AM 59.0 °F 50.0 °F 72% 30.15 in 6.2 mi SW 9.2 mph - N/A   Mostly Cloudy
11:00 AM 57.2 °F 48.2 °F 72% 30.12 in 6.2 mi SW 6.9 mph - N/A   Mostly Cloudy
11:30 AM 59.0 °F 50.0 °F 72% 30.15 in 6.2 mi SSW 8.1 mph - N/A   Mostly Cloudy
12:00 PM 55.4 °F 53.6 °F 94% 30.12 in 6.2 mi SW 6.9 mph - N/A   Mostly Cloudy
12:30 PM 57.2 °F 53.6 °F 88% 30.12 in 6.2 mi SSW 6.9 mph - N/A   Mostly Cloudy
1:00 PM 57 °F 55 °F 90% 30.13 in 4 mi SSW 6.7 mph - - Rain Light Drizzle
1:00 PM 57.2 °F 55.4 °F 94% 30.12 in 4.3 mi SSW 5.8 mph - N/A   Light Drizzle
1:30 PM 57.2 °F 57.2 °F 100% 30.12 in 6.2 mi WSW 13.8 mph - N/A   Mostly Cloudy
2:00 PM 59.0 °F 55.4 °F 88% 30.12 in 6.2 mi West 13.8 mph - N/A   Mostly Cloudy
2:30 PM 59.0 °F 51.8 °F 77% 30.12 in 6.2 mi WSW 13.8 mph - N/A   Mostly Cloudy
3:00 PM 59.0 °F 50.0 °F 72% 30.12 in 6.2 mi West 16.1 mph - N/A   Mostly Cloudy
3:30 PM 59.0 °F 50.0 °F 72% 30.09 in 6.2 mi West 16.1 mph - N/A   Mostly Cloudy
4:00 PM 59.0 °F 48.2 °F 67% 30.09 in 6.2 mi West 17.3 mph - N/A   Mostly Cloudy
4:30 PM 59.0 °F 48.2 °F 67% 30.09 in 6.2 mi West 17.3 mph - N/A   Mostly Cloudy
5:00 PM 59.0 °F 46.4 °F 63% 30.09 in 6.2 mi West 18.4 mph - N/A   Mostly Cloudy
5:30 PM 60.8 °F 46.4 °F 59% 30.09 in 6.2 mi West 16.1 mph - N/A   Mostly Cloudy
6:00 PM 59.0 °F 50.0 °F 72% 30.09 in 6.2 mi West 12.7 mph - N/A   Mostly Cloudy
7:00 PM 56 °F 50 °F 73% 30.11 in 28 mi West 13.4 mph - - Rain Light Rain Showers
7:00 PM 55.4 °F 50.0 °F 82% 30.09 in 6.2 mi West 12.7 mph - N/A   Mostly Cloudy